Regional Weather Roundup
Issued by NWS

Home | Current Version | Previous Version | Text Only | Print | Product List | Glossary Off
Versions: 1 2 3 4 5 6 7 8 9 10 11 12 13 14 15 16 17 18 19 20 21 22 23 24 25 26 27 28 29 30 31 32 33 34 35 36 37 38 39 40 41 42 43 44 45 46 47 48 49 50

000
ASUS45 KTFX 250910
RWRMT
MONTANA REGIONAL WEATHER ROUNDUP
NATIONAL WEATHER SERVICE GREAT FALLS MT
300 AM MDT TUE APR 25 2017

NOTE: "FAIR" INDICATES FEW OR NO CLOUDS BELOW 12000 FEET WITH NO
SIGNIFICANT WEATHER AND/OR OBSTRUCTIONS TO VISIBILITY.

MTZ001>007-043-251000-
WEST OF THE DIVIDE

CITY           SKY/WX    TMP DP  RH WIND       PRES   REMARKS
KALISPELL      CLOUDY    40  39  97 CALM      29.75R
MISSOULA       MOCLDY    39  38  96 CALM      29.77R
BUTTE          CLOUDY    34  32  92 VRB3      29.70S
MULLAN PASS    FOG       30  30 100 NW6       29.75R VSB 1   WCI  24
ANACONDA         N/A     37  34  87 CALM      29.72R
DEER LODGE       N/A     39  34  81 NW12      29.73S WCI  32
EUREKA           N/A     39  37  93 CALM      29.75R
HAMILTON         N/A     39  37  93 CALM      29.76R
LIBBY            N/A     36  34  93 CALM      29.76R
$$

MTZ008-052>055-251000-
SOUTHWEST MONTANA

CITY           SKY/WX    TMP DP  RH WIND       PRES   REMARKS
BOZEMAN        CLOUDY    42  38  85 E5        29.66R
DILLON         LGT RAIN  35  33  92 E7        29.68R FOG     WCI  29
W YELLOWSTONE  LGT SNOW  32  32 100 S6        29.64S VSB 3/4 WCI  26
ENNIS          CLOUDY    36  34  93 CALM      29.70R
THREE FORKS      N/A     43  43 100 CALM      29.70R
$$

MTZ009-010-012-014-046-048-049-054-251000-
EAST SLOPES AND CENTRAL MONTANA

CITY           SKY/WX    TMP DP  RH WIND       PRES   REMARKS
CUT BANK       LGT RAIN  37  36  96 NW7       29.73S FOG     WCI  32
GREAT FALLS    CLOUDY    41  37  86 NW5       29.72R
MALMSTROM AFB  CLOUDY    40  39  93 CALM      29.72S
HELENA         CLOUDY    43  40  89 NW6       29.70R
AUGUSTA        MOCLDY    37  37 100 W6        29.72S WCI  32
BOWMANS CRNR   MOCLDY    35  34  96 NW8       29.70S WCI  28
CHOTEAU          N/A     39  39 100 NW7       29.75R
FAIRFIELD        N/A     37  35  92 NW3       29.72R
POWER          MOCLDY    38  37  98 N7        29.71R
RAYNESFORD     MOCLDY    39  37  92 SE6       29.71R
ULM            CLOUDY    41  40  95 W5        29.71S
$$

MTZ011-013-016-021-045-047-050-051-251000-
NORTH CENTRAL MONTANA

CITY           SKY/WX    TMP DP  RH WIND       PRES   REMARKS
HAVRE          CLOUDY    34  29  82 E25       29.77R WCI  21
LEWISTOWN      CLOUDY    35  33  92 E17       29.70S WCI  25
CHINOOK          N/A     34  27  75 E12G20    29.82R WCI  25
DENTON         DRIZZLE   37  36  94 E17G25    29.69R WCI  28
FORT BENTON      N/A     43  39  87 MISG      29.73S
GEYSER         MOCLDY    38  37  95 CALM      29.70S
GRASS RANGE    FOG       34  34  99 NE10      29.71R VSB 5/8 WCI  26
JUDITH GAP     LGT RAIN  36  34  93 S10       29.69R WCI  29
STANFORD       DRIZZLE   37  36  96 NW3       29.70R
WINIFRED       FOG       33  33  99 E17       29.73R VSB 7/8 WCI  22
$$

MTZ017>020-022>027-061-062-251000-
NORTHEAST MONTANA

CITY           SKY/WX    TMP DP  RH WIND       PRES   REMARKS
GLASGOW        CLOUDY    30  24  78 E14       29.85R WCI  19
JORDAN           N/A     31  26  82 NE13      29.79R WCI  21
SIDNEY         CLOUDY    31  27  85 NE12      29.84S WCI  22
WOLF POINT     CLOUDY    32  26  78 E13       29.86R WCI  22
MALTA          CLOUDY    30  27  86 E10G17    29.85R WCI  21
PLENTYWOOD       N/A     28  27  93 NE12      29.88R WCI  18
POPLAR           N/A     30  25  80 NE13      29.86S WCI  20
$$

MTZ028>42-056>058-251000-
SOUTHCENTRAL AND SOUTHEAST MONTANA

CITY           SKY/WX    TMP DP  RH WIND       PRES   REMARKS
BAKER          CLOUDY    29  26  89 NE14      29.73F WCI  18
BILLINGS       CLOUDY    38  37  97 NE16G22   29.68R WCI  29
LIVINGSTON     LGT SNOW  34  33  96 E8        29.67R FOG     WCI  27
MILES CITY     CLOUDY    33  28  81 NE20      29.74R WCI  21
BIG TIMBER     CLOUDY    36  36 100 N9        29.70S FOG     WCI  29
LAUREL           N/A     39  35  85 N12       29.69R WCI  32
ROUNDUP          N/A     36  31  82 N8        29.66R WCI  30
$$

REGIONAL REPORTS...DAKOTAS

CITY           SKY/WX    TMP DP  RH WIND       PRES   REMARKS
WILLISTON      CLOUDY    31  24  75 NE15      29.86S WCI  20
MINOT          CLOUDY    31  26  82 N12       29.82S WCI  22
DICKINSON      CLOUDY    28  26  92 NE15      29.73F WCI  16
BEACH          CLOUDY    28  28 100 NE10      29.78F FOG     WCI  19
TIOGA          CLOUDY    27  27 100 NE15      29.86R WCI  15
WATFORD CITY   CLOUDY    30  25  80 NE13G20   29.83R WCI  20
BISMARCK       CLOUDY    32  27  81 N15       29.77R WCI  22
GRAND FORKS    CLOUDY    32  30  92 N18       29.73R WCI  20
FARGO          CLOUDY    33  32  96 N24G30    29.66R WCI  20
BUFFALO SD       N/A     31  28  89 NE18      29.62F WCI  19
RAPID CITY     LGT RAIN  36  33  89 NE7       29.64F WCI  30
$$

REGIONAL REPORTS...WYOMING/IDAHO/WASHINGTON

CITY           SKY/WX    TMP DP  RH WIND       PRES   REMARKS
GILLETTE       RAIN      39  39 100 NE22      29.48F WCI  29
SHERIDAN       LGT SNOW  33  32  96 NW10      29.62S VSB 1   WCI  25
BUFFALO WY     SNOW      34  31  88 NW23G35   29.54F VSB 1/2 WCI  22
CODY           LGT RAIN  37  34  89 NW12      29.61S WCI  29
YELLOWSTONE LA   N/A     28  27  96 CALM      29.64S
IDAHO FALLS    CLOUDY    39  37  92 SW16      29.69S WCI  30
SALMON         CLOUDY    36  34  93 CALM      29.73R
BOISE          CLOUDY    44  40  85 NW9       29.82R
SPOKANE        LGT RAIN  44  40  85 SW13      29.79R
$$

REGIONAL REPORTS...ALBERTA

CITY           SKY/WX    TMP DP  RH WIND       PRES   REMARKS
EDMONTON       CLOUDY    32  30  93 W3        29.87S
CALGARY        LGT SNOW  30  28  93 N14       29.81R FOG     WCI  20
LETHBRIDGE     LGT RAIN  37  37 100 E10       29.76R FOG     WCI  30
MEDICINE HAT   CLOUDY    34  30  86 E12G17    29.80S WCI  25
WATERTON GATE    N/A     34  32  93 CALM        N/A
CARDSTON         N/A     36  36 100 NW3         N/A
MILK RIVER       N/A     37  37 100 E8          N/A  WCI  31
ONEFOUR          N/A     32  28  86 E17         N/A  WCI  21
$$

REGIONAL REPORTS...SASKATCHEWAN

CITY           SKY/WX    TMP DP  RH WIND       PRES   REMARKS
SWIFT CURRENT  CLOUDY    27  25  93 E10       29.87R WCI  17
REGINA         CLOUDY    27  21  80 NE10G17   29.94S WCI  17
SASKATOON      MOCLDY    25  21  86 E8        30.01S WCI  16
CYPRESS HILLS    N/A     25  25 100 SE6         N/A  WCI  18
VAL MARIE        N/A     28  23  80 E12         N/A  WCI  18
ROCKGLEN         N/A     25  25 100 E5          N/A
ASSINIBOIA       N/A     32  32 100 SE9         N/A  WCI  24
$$



USA.gov is the U.S. government's official web portal to all federal, state and local government web resources and services.